[[{"header":{"parameterUnit":"m.s-1","parameterCategory":1,"la1":30.2991,"la2":30.254,"lo1":-89.0895,"lo2":-89.0444,"dy":0.0017,"dx":0.0017,"nx":28,"ny":28,"refTime":"2024-04-27T09:00:00:Z","depth":0,"parameterNumber":2,"parameterNumberName":"U-component_of_WINDS"},"data":[0,0,0,0,0,0,0,0,0,0,0,0,0,0,0,0,0,0,0,0,0,0,0,0,0,0,0,0,0,0,0,0,0,0,0,0,0,0,0,0,0,0,0,0,0,0,0,0,0,0,0,0,0,0,0,0,0,0,-6.7876,-6.7878,0,-6.8045,-6.8047,-6.8049,-6.8063,-6.8061,-6.8059,-6.8057,-6.8226,-6.8232,-6.8238,0,0,0,0,0,0,0,0,0,0,0,0,0,-6.7561,-6.7567,-6.7876,-6.7878,-6.788,-6.8045,-6.8047,-6.8049,-6.8063,-6.8061,-6.8059,-6.8056,-6.8224,-6.8232,-6.8239,0,0,0,0,0,0,0,0,0,0,0,0,0,-6.7711,-6.7569,-6.7875,-6.7907,-6.7911,-6.8044,-6.8047,-6.805,-6.8063,-6.8061,-6.8058,-6.8055,-6.8222,-6.8231,-6.824,-6.8352,0,0,-6.8268,-6.8273,0,0,0,0,0,0,0,0,-6.7702,-6.7722,-6.79,-6.7905,-6.791,-6.803,-6.7998,-6.8151,-6.8064,-6.8006,-6.8057,-6.8054,-6.8163,-6.8177,-6.8215,-6.836,-6.8367,-6.8269,-6.8275,-6.8279,-6.8282,0,0,0,0,0,0,0,-6.7692,-6.7715,-6.7943,-6.7903,-6.7909,-6.7911,-6.793,-6.8027,-6.8097,-6.801,-6.8012,-6.8032,-6.8165,-6.8206,-6.8219,-6.837,-6.8269,-6.8277,-6.8283,-6.8287,-6.8616,-6.8619,0,0,0,0,0,0,-6.7676,-6.7706,-6.7937,-6.7948,-6.7798,-6.7919,-6.794,-6.7994,-6.8096,-6.8109,-6.8034,-6.8032,-6.8191,-6.8208,-6.8225,-6.8362,-6.8279,-6.8288,-6.8293,-6.8613,-6.8617,-6.8621,0,0,0,0,0,0,-6.7669,-6.7697,-6.793,-6.7828,-6.7858,-6.7928,-6.7989,-6.7999,-6.8039,-6.8114,-6.8126,-6.8063,-6.819,-6.8212,-6.8321,-6.8368,-6.8292,-6.83,-6.861,-6.8614,-6.8619,-6.8638,0,0,0,0,0,0,-6.766,-6.7694,-6.7738,-6.7829,-6.7863,-6.8024,-6.7992,-6.8004,-6.8056,-6.8055,-6.8144,-6.8156,-6.8189,-6.8307,-6.833,-6.8379,-6.8307,-6.8605,-6.8612,-6.8617,-6.8633,-6.8643,-6.8651,0,0,0,0,0,-6.7649,-6.7735,-6.774,-6.7768,-6.7919,-6.8027,-6.8047,-6.8084,-6.806,-6.8104,-6.8152,-6.8154,-6.836,-6.8318,-6.8344,-6.8397,-6.8603,-6.861,-6.8617,-6.8629,-6.8641,-6.8651,0,0,0,0,0,0,-6.7646,-6.7748,-6.7754,-6.7872,-6.7941,-6.8029,-6.8086,-6.8095,-6.817,-6.8166,-6.8208,-6.8228,-6.8335,-6.8378,-6.8329,-6.8511,-6.8479,-6.8491,-6.8479,-6.8491,-6.8499,-6.8485,-6.8315,0,0,0,0,0,-6.766,-6.774,-6.7824,-6.792,-6.7955,-6.8015,-6.8063,-6.8086,-6.8158,-6.8187,-6.8243,-6.8312,-6.8393,-6.8445,-6.8523,-6.8641,-6.866,-6.8691,-6.8699,-6.8706,-6.8715,-6.8781,-6.8795,-6.8644,-6.8644,-6.8644,0,0,-6.7687,-6.7753,-6.7801,-6.7922,-6.7978,-6.8059,-6.8039,-6.8125,-6.8185,-6.8199,-6.8306,-6.835,-6.843,-6.8544,-6.8597,-6.8583,-6.8762,-6.8715,-6.872,-6.8726,-6.879,-6.8804,-6.8816,-6.8649,-6.8648,-6.8647,0,0,-6.7779,-6.7838,-6.7924,-6.7982,-6.8068,-6.8107,-6.8128,-6.8216,-6.8246,-6.8355,-6.8367,-6.8439,-6.8577,-6.8634,-6.868,-6.8797,-6.8801,-6.8822,-6.8866,-6.8929,-6.8941,-6.8952,-6.8992,-6.9006,-6.8832,-6.8832,-6.8832,0,-6.7802,-6.7926,-6.7967,-6.8054,-6.8106,-6.8126,-6.8213,-6.8267,-6.8373,-6.8409,-6.8392,-6.8566,-6.8622,-6.8749,-6.8778,-6.8816,-6.884,-6.881,-6.8936,-6.8947,-6.8958,-6.8996,-6.9012,-6.8834,-6.8833,-6.8833,-6.8833,0,-6.7949,-6.8035,-6.8095,-6.8199,-6.8259,-6.8345,-6.8399,-6.8454,-6.8473,-6.8515,-6.8625,-6.8693,-6.8785,-6.8818,-6.8836,-6.8948,-6.8937,-6.8928,-6.8895,-6.8973,-6.901,-6.9025,-6.8836,-6.8835,-6.8835,-6.8834,0,0,-6.8039,-6.8168,-6.8189,-6.8237,-6.8335,-6.8401,-6.849,-6.8582,-6.8628,-6.8702,-6.8775,-6.8893,-6.8887,-6.894,-6.8965,-6.9021,-6.9108,-6.9006,-6.9008,-6.902,-6.9234,-6.9238,-6.9255,-6.9113,-6.9116,-6.9118,-6.9227,0,-6.814,-6.8298,-6.8339,-6.8473,-6.8552,-6.8574,-6.865,-6.8718,-6.876,-6.8833,-6.8879,-6.8961,-6.8947,-6.8979,-6.9036,-6.9085,-6.9151,-6.9078,-6.918,-6.9183,-6.9156,-6.9274,-6.9278,-6.9377,-6.9242,-6.9244,-6.9246,0,-6.8278,-6.8357,-6.8499,-6.8587,-6.8622,-6.869,-6.8779,-6.8849,-6.8927,-6.8953,-6.9014,-6.9035,-6.9127,-6.9093,-6.9219,-6.9169,-6.9214,-6.9245,-6.9249,-6.9257,-6.9217,-6.9283,-6.941,-6.9424,-6.927,-6.9268,-6.9266,0,-6.8327,-6.8469,-6.8572,-6.8613,-6.8719,-6.8767,-6.8813,-6.8889,-6.8942,-6.9019,-6.9054,-6.9141,-6.9188,-6.9254,-6.9298,-6.9269,-6.942,-6.939,-6.9443,-6.9442,-6.9471,-6.9468,-6.9604,-6.9505,-6.9505,-6.9504,-6.9504,0,-6.8434,-6.8519,-6.8596,-6.8659,-6.8756,-6.8803,-6.8897,-6.8944,-6.9011,-6.9083,-6.9108,-6.9175,-6.923,-6.9305,-6.934,-6.9438,-6.946,-6.9483,-6.949,-6.9479,-6.9476,-6.9506,-6.9499,-6.9508,-6.9508,-6.9507,-6.9506,0,-6.8503,-6.8559,-6.8672,-6.8765,-6.8791,-6.8857,-6.8936,-6.8998,-6.9042,-6.9133,-6.9157,-6.9226,-6.9315,-6.9367,-6.9479,-6.9502,-6.9611,-6.9617,-6.9585,-6.9588,-6.9638,-6.9631,-6.9796,-6.9819,-6.9706,-6.9708,-6.9708,0,-6.8566,-6.8633,-6.8734,-6.8784,-6.8832,-6.8914,-6.8969,-6.9019,-6.9075,-6.917,-6.922,-6.9311,-6.9386,-6.9528,-6.9587,-6.9673,-6.9679,-6.9731,-6.9692,-6.9679,-6.9677,-6.9672,-6.9678,-6.9736,-6.9737,-6.9738,-6.9739,0,-6.8671,-6.8696,-6.8775,-6.8864,-6.893,-6.9002,-6.9074,-6.9114,-6.9176,-6.9238,-6.933,-6.9389,-6.9505,-6.9594,-6.9686,-6.9733,-6.9746,-6.9752,-6.9768,-6.9755,-6.9733,-6.9744,-6.96,-6.9747,-6.9746,-6.9745,-6.9745,-6.9745,-6.8738,-6.8798,-6.8879,-6.8966,-6.9026,-6.9093,-6.9156,-6.9209,-6.9288,-6.9386,-6.9411,-6.9508,-6.9586,-6.971,-6.976,-6.9836,-6.9826,-6.9851,-6.9856,-6.9861,-6.9861,-6.9724,-6.9853,-6.9853,-6.9853,-6.9853,-6.9852,0,-6.8842,-6.8896,-6.8976,-6.9077,-6.9146,-6.9156,-6.9236,-6.9293,-6.9378,-6.945,-6.9524,-6.9631,-6.9719,-6.9786,-6.9876,-6.9924,-6.9932,-6.9945,-6.9941,-6.9951,-6.9866,-6.9841,-6.9937,-6.9937,-6.9937,-6.9937,-6.9937,-6.9937,-6.8904,-6.9006,-6.9041,-6.9173,-6.9226,-6.9322,-6.9367,-6.9429,-6.9487,-6.9605,-6.9679,-6.9723,-6.9793,-6.9889,-6.997,-6.9988,-7.0018,-7.003,-7.0048,-6.9966,-6.9957,-6.9948,-6.9925,-7.0037,-7.0038,-7.0127,-7.0128,-7.0129]},{"header":{"parameterUnit":"m.s-1","parameterCategory":1,"la1":30.2991,"la2":30.254,"lo1":-89.0895,"lo2":-89.0444,"dy":0.0017,"dx":0.0017,"nx":28,"ny":28,"refTime":"2024-04-27T09:00:00:Z","depth":0,"parameterNumber":3,"parameterNumberName":"V-component_of_WINDS"},"data":[0,0,0,0,0,0,0,0,0,0,0,0,0,0,0,0,0,0,0,0,0,0,0,0,0,0,0,0,0,0,0,0,0,0,0,0,0,0,0,0,0,0,0,0,0,0,0,0,0,0,0,0,0,0,0,0,0,0,4.4463,4.4464,0,4.4511,4.4511,4.4512,4.4509,4.4508,4.4508,4.4507,4.4552,4.4554,4.4556,0,0,0,0,0,0,0,0,0,0,0,0,0,4.4369,4.4371,4.4463,4.4464,4.4464,4.4511,4.4511,4.4512,4.4509,4.4508,4.4507,4.4507,4.4552,4.4554,4.4556,0,0,0,0,0,0,0,0,0,0,0,0,0,4.4412,4.4371,4.4463,4.4469,4.447,4.451,4.4511,4.4512,4.4509,4.4508,4.4507,4.4506,4.4551,4.4554,4.4557,4.4594,0,0,4.4565,4.4566,0,0,0,0,0,0,0,0,4.441,4.4416,4.4467,4.4468,4.4469,4.4503,4.4495,4.4539,4.4509,4.4494,4.4507,4.4506,4.4537,4.4541,4.4552,4.4596,4.4598,4.4565,4.4567,4.4568,4.4569,0,0,0,0,0,0,0,4.4407,4.4414,4.4482,4.4468,4.4469,4.4468,4.4473,4.4503,4.452,4.4495,4.4495,4.4501,4.4537,4.4549,4.4553,4.4599,4.4565,4.4568,4.4569,4.4571,4.468,4.4681,0,0,0,0,0,0,4.4403,4.4411,4.448,4.4483,4.4437,4.4471,4.4477,4.4493,4.452,4.4523,4.4502,4.4501,4.4545,4.4549,4.4554,4.4602,4.4568,4.4571,4.4572,4.4679,4.468,4.4682,0,0,0,0,0,0,4.4401,4.4409,4.4478,4.4447,4.4456,4.4474,4.4492,4.4495,4.4507,4.4525,4.4528,4.4511,4.4544,4.455,4.4585,4.4604,4.4572,4.4575,4.4677,4.4679,4.4681,4.4697,0,0,0,0,0,0,4.4398,4.4408,4.4423,4.4448,4.4458,4.4509,4.4493,4.4496,4.4512,4.4511,4.4534,4.4537,4.4544,4.4581,4.4588,4.4607,4.4577,4.4676,4.4678,4.468,4.4695,4.4699,4.4703,0,0,0,0,0,4.4395,4.4424,4.4424,4.4432,4.4476,4.451,4.4516,4.4523,4.4513,4.4528,4.454,4.4537,4.46,4.4585,4.4592,4.4612,4.4675,4.4678,4.468,4.4693,4.4698,4.4703,0,0,0,0,0,0,4.4399,4.4427,4.4427,4.4465,4.4486,4.4509,4.4528,4.4528,4.4551,4.4549,4.4556,4.4562,4.4597,4.4608,4.459,4.4652,4.4636,4.4641,4.4643,4.4649,4.4653,4.4649,4.4579,0,0,0,0,0,4.4405,4.443,4.4453,4.4485,4.4495,4.451,4.4525,4.453,4.455,4.4558,4.4573,4.4593,4.4618,4.4633,4.4657,4.4697,4.4703,4.4714,4.4718,4.4722,4.4725,4.475,4.4756,4.4691,4.4691,4.4691,0,0,4.4416,4.4435,4.445,4.4486,4.4502,4.4529,4.4517,4.4545,4.4565,4.4562,4.4597,4.4609,4.4631,4.4669,4.4687,4.4679,4.4745,4.4725,4.4728,4.473,4.4753,4.4759,4.4765,4.4693,4.4692,4.4692,0,0,4.4451,4.4467,4.4497,4.4514,4.4539,4.4549,4.4557,4.4581,4.459,4.4625,4.4625,4.4648,4.469,4.4707,4.4721,4.4765,4.4763,4.4773,4.4794,4.4817,4.4822,4.4827,4.4845,4.4851,4.4776,4.4776,4.4776,0,4.4462,4.4502,4.4511,4.4541,4.4557,4.4558,4.4589,4.4604,4.4636,4.4647,4.4639,4.4694,4.4708,4.4752,4.4763,4.4774,4.4783,4.477,4.4821,4.4826,4.483,4.4847,4.4854,4.4778,4.4777,4.4777,4.4777,0,4.4515,4.4544,4.4564,4.4597,4.4616,4.4645,4.4659,4.4677,4.4681,4.4692,4.4729,4.4747,4.4776,4.4787,4.4789,4.4831,4.4826,4.4819,4.4804,4.4837,4.4854,4.486,4.4779,4.4779,4.4778,4.4778,0,0,4.4553,4.4592,4.46,4.4616,4.4646,4.4667,4.4697,4.4727,4.4743,4.4765,4.4792,4.4829,4.4823,4.4839,4.4844,4.4865,4.4902,4.4856,4.4856,4.4865,4.4952,4.4958,4.4965,4.49,4.4902,4.4903,4.495,0,4.4592,4.4647,4.4657,4.4705,4.4732,4.4735,4.4761,4.4782,4.4794,4.4819,4.4831,4.4858,4.4848,4.4859,4.4879,4.4893,4.4919,4.4889,4.4925,4.4927,4.4921,4.4973,4.4979,4.5023,4.4956,4.4958,4.4958,0,4.4645,4.4671,4.4722,4.475,4.4762,4.4786,4.4816,4.4839,4.4863,4.4871,4.489,4.4893,4.4925,4.4909,4.4954,4.4933,4.4949,4.4958,4.496,4.4964,4.4945,4.498,4.5037,4.5044,4.4968,4.4967,4.4966,0,4.467,4.4717,4.4755,4.4768,4.4801,4.4819,4.4833,4.4857,4.4875,4.49,4.4913,4.4941,4.4956,4.4978,4.499,4.4976,4.5035,4.5018,4.5042,4.5042,4.5055,4.5054,4.5116,4.5063,4.5062,4.5062,4.5062,0,4.4713,4.4744,4.4767,4.479,4.4826,4.4838,4.4873,4.4887,4.4909,4.4935,4.4938,4.4962,4.4975,4.5001,4.501,4.5047,4.5053,4.5061,4.5063,4.5061,4.5061,4.5072,4.507,4.5064,4.5064,4.5063,4.5063,0,4.4747,4.4763,4.4804,4.4834,4.4842,4.4867,4.4892,4.4915,4.4928,4.4961,4.497,4.4989,4.5021,4.5034,4.5072,4.5078,4.5121,4.512,4.5114,4.5115,4.5139,4.5137,4.5211,4.5222,4.516,4.5161,4.5161,0,4.4774,4.4799,4.4832,4.4851,4.4867,4.4896,4.4915,4.4928,4.4948,4.498,4.4999,4.5031,4.5058,4.5108,4.5125,4.5155,4.5156,4.518,4.516,4.5159,4.5158,4.5157,4.5161,4.5184,4.5184,4.5185,4.5185,0,4.4821,4.4829,4.4857,4.489,4.4913,4.4938,4.4963,4.4978,4.4995,4.5017,4.5051,4.5071,4.5112,4.5144,4.5176,4.519,4.5191,4.5191,4.5199,4.5198,4.5194,4.5198,4.5125,4.519,4.5189,4.5189,4.5188,4.5188,4.4854,4.4877,4.4905,4.4938,4.4958,4.4982,4.5006,4.5023,4.5051,4.5086,4.5092,4.5128,4.5154,4.5196,4.5213,4.5241,4.5235,4.5245,4.5248,4.5251,4.5254,4.5189,4.5246,4.5246,4.5246,4.5246,4.5246,0,4.4903,4.4922,4.4952,4.4988,4.5014,4.5014,4.5042,4.5063,4.5095,4.512,4.5147,4.5186,4.5218,4.5239,4.5271,4.529,4.5292,4.5299,4.5298,4.5302,4.5256,4.5247,4.5297,4.5297,4.5297,4.5297,4.5297,4.5297,4.4932,4.4973,4.4984,4.5035,4.5053,4.509,4.5106,4.5129,4.5149,4.5193,4.5221,4.5235,4.5258,4.5293,4.5322,4.5328,4.534,4.5348,4.5353,4.531,4.5305,4.53,4.5291,4.535,4.535,4.5396,4.5397,4.5397]}]]